Terminal Aerodrome Forecast
Issued by NWS

Home | Current Version | Previous Version | Text Only | Print | Product List | Glossary On
Versions: 1 2 3 4 5 6 7 8 9 10 11 12 13 14
000
FTPQ31 PGUM 260520
TAFGUM
TAF

TAF
PTRO 260520Z 2606/2706 06012KT P6SM VCSH SCT017 BKN120 BKN300=

USA.gov is the U.S. government's official web portal to all federal, state and local government web resources and services.